User: anonymous   Login
Location: Unspecified
(0.0000°N, 0.0000°E)
Time: 02:47:18
(UTC+00:00)
Language:

AAUSAT 4 - Orbit

View from above orbital plane
View from above orbital plane
View from above satellite
View from above satellite

Ground track
Ground track

The orbit data is extracted from the following two-line orbital elements,

1 41460U 16025E   17147.37057328 +.00003454 +00000-0 +18849-3 0  9993
2 41460 098.1806 183.7986 0167961 358.3784 001.6844 15.03808183059463
Epoch (UTC): 27 May 2017 08:53:37
Eccentricity: 0.0167961
inclination: 98.1806°
perigee height: 439 km
apogee height: 671 km
right ascension of ascending node: 183.7986°
argument of perigee: 358.3784°
revolutions per day: 15.03808183
mean anomaly at epoch: 1.6844°
orbit number at epoch: 5946

The dashed part of the orbit path shows where the satellite is in the earth's shadow,  

DLR